Regional Weather Roundup
Issued by NWS

Home | Current Version | Previous Version | Graphics & Text | Print | Product List | Glossary On
Versions: 1 2 3 4 5 6 7 8 9 10 11 12 13 14 15 16 17 18 19 20 21 22 23 24 25 26 27 28 29 30 31 32 33 34 35 36 37 38 39 40 41 42 43 44 45 46 47 48 49 50
000
ASUS43 KLMK 170710
RWRKY
KENTUCKY REGIONAL WEATHER ROUNDUP
NATIONAL WEATHER SERVICE LOUISVILLE KY
200 AM EST SUN DEC 17 2017

NOTE "FAIR" INDICATES FEW OR NO CLOUDS BELOW 12,000 FEET
WITH NO SIGNIFICANT WEATHER AND/OR OBSTRUCTIONS TO VISIBILITY.

KYZ001>023-026-027-061>063-070>075-170800-
WESTERN AND SOUTH CENTRAL KENTUCKY

CITY           SKY/WX    TMP DP  RH WIND       PRES   REMARKS
PADUCAH        CLOUDY    44  29  55 CALM      30.14F
HENDERSON      PTCLDY    41  31  67 S6        30.16F
OWENSBORO      MOCLDY    39  30  70 S8        30.18F WCI  33
HOPKINSVILLE   CLOUDY    42  29  60 SE5       30.17F
BOWLING GREEN  PTCLDY    41  31  67 S6        30.22S
GLASGOW        PTCLDY    40  30  66 S3        30.21S
$$

KYZ024-025-028>034-038-045-046-053-170800-
NORTH CENTRAL KENTUCKY

CITY           SKY/WX    TMP DP  RH WIND       PRES   REMARKS
LOUISVILLE/SDF CLOUDY    43  29  57 S9        30.18F
LOUISVILLE/LOU PTCLDY    39  31  72 S8        30.20F WCI  33
FORT KNOX      MOCLDY    37  28  71 S3        30.17S
$$

KYZ035>037-039>044-047>052-055>060-089>105-170800-
NORTHEAST KENTUCKY

CITY           SKY/WX    TMP DP  RH WIND       PRES   REMARKS
LEXINGTON      PTCLDY    37  28  70 S9        30.20F WCI  30
COVINGTON      MOCLDY    37  30  75 S8        30.16F WCI  31
FRANKFORT      PTCLDY    38  27  64 S7        30.19S WCI  33
$$

KYZ054-064>069-076>088-106>120-170800-
SOUTHEAST KENTUCKY

CITY           SKY/WX    TMP DP  RH WIND       PRES   REMARKS
JACKSON        CLOUDY    39  27  62 SW3       30.22S
LONDON         MOCLDY    31  26  82 CALM      30.22F
SOMERSET       PTCLDY    36  28  75 S5        30.25S WCI  32
MIDDLESBORO    CLOUDY    28  26  94 CALM      30.27R
MONTICELLO     MOSUNNY   30  28  92 NW8       30.26S WCI  22
$$





USA.gov is the U.S. government's official web portal to all federal, state and local government web resources and services.